This is the latest recevied weather packets stored in our database for station/object KI4MRC. If no packets are shown the sender has not sent any weather packets the latest 10 day(s).
| Time | Temp. | Humidity | Pressure | Rain* | Wind** | Luminosity | Snow |
|---|---|---|---|---|---|---|---|
| 1777966249 | 21.11° C | 99% | 1013.4 hPa | 0 mm | - | 0 W/m² | - |
| 1777965944 | 21.11° C | 99% | 1013.6 hPa | 0 mm | - | 0 W/m² | - |
| 1777965641 | 21.11° C | 98% | 1013.3 hPa | 0 mm | - | 0 W/m² | - |
| 1777965336 | 21.11° C | 98% | 1013.3 hPa | 0 mm | - | 0 W/m² | - |
| 1777965035 | 21.67° C | 98% | 1013.4 hPa | 0 mm | - | 0 W/m² | - |
| 1777964731 | 21.11° C | 98% | 1013.3 hPa | 0 mm | - | 0 W/m² | - |
| 1777964427 | 21.11° C | 98% | 1013.6 hPa | 0 mm | - | 0 W/m² | - |
| 1777964123 | 21.11° C | 98% | 1013.5 hPa | 0 mm | - | 0 W/m² | - |
| 1777963820 | 21.11° C | 98% | 1013.5 hPa | 0 mm | - | 0 W/m² | - |
| 1777963517 | 21.11° C | 98% | 1013.3 hPa | 0 mm | - | 0 W/m² | - |
| 1777963215 | 21.11° C | 98% | 1013.5 hPa | 0 mm | - | 0 W/m² | - |
| 1777962912 | 21.11° C | 98% | 1013.4 hPa | 0 mm | - | 0 W/m² | - |
| 1777962608 | 21.11° C | 98% | 1013.6 hPa | 0.51 mm | - | 0 W/m² | - |
| 1777962305 | 21.11° C | 98% | 1013.7 hPa | 1.27 mm | - | 0 W/m² | - |
| 1777962002 | 21.67° C | 98% | 1013.8 hPa | 2.29 mm | - | 0 W/m² | - |
| 1777961700 | 21.67° C | 98% | 1013.7 hPa | 3.56 mm | - | 0 W/m² | - |
| 1777961397 | 21.67° C | 98% | 1013.9 hPa | 2.29 mm | - | 0 W/m² | - |
| 1777961094 | 21.67° C | 98% | 1014.1 hPa | 0.51 mm | - | 0 W/m² | - |
| 1777960790 | 21.67° C | 97% | 1014.1 hPa | 0 mm | - | 0 W/m² | - |
| 1777960486 | 21.67° C | 97% | 1014.1 hPa | 0 mm | - | 0 W/m² | - |
| 1777960183 | 21.67° C | 97% | 1014.1 hPa | 0 mm | - | 0 W/m² | - |
| 1777959881 | 21.67° C | 97% | 1013.9 hPa | 0 mm | - | 0 W/m² | - |
| 1777959579 | 21.67° C | 97% | 1014 hPa | 0 mm | - | 0 W/m² | - |
| 1777959276 | 21.67° C | 97% | 1014.3 hPa | 0 mm | - | 0 W/m² | - |
| 1777958972 | 21.67° C | 96% | 1014.3 hPa | 0 mm | - | 0 W/m² | - |
* Rain latest hour (hover to see other rain measurements)
** Current wind speed in m/s (hover to see current wind gust speed)